| time (UTC) | temp C | wind direction | speed KPH | gust KPH | rain 1hr cm | rain 24hr cm | rain mn cm | humidity % | barometer mb |
| 20260506081610 | 13 | 306 | 0.0 | 0.0 | 0.00 | 0.00 | 0.00 | 57 | 1015.8 |
| 20260506081107 | 13 | 291 | 0.0 | 0.0 | 0.00 | 0.00 | 0.00 | 57 | 1015.9 |
| 20260506080604 | 13 | 282 | 0.0 | 0.0 | 0.00 | 0.00 | 0.00 | 55 | 1016.0 |
| 20260506073044 | 13 | 279 | 0.0 | 0.0 | 0.00 | 0.00 | 0.00 | 55 | 1016.0 |
| 20260506072541 | 13 | 298 | 0.0 | 0.0 | 0.00 | 0.00 | 0.00 | 56 | 1016.0 |
| 20260506072039 | 14 | 298 | 0.0 | 0.0 | 0.00 | 0.00 | 0.00 | 54 | 1015.9 |
| 20260506071537 | 15 | 298 | 0.0 | 0.0 | 0.00 | 0.00 | 0.00 | 51 | 1015.9 |
| 20260506071034 | 15 | 282 | 0.0 | 0.0 | 0.00 | 0.00 | 0.00 | 48 | 1015.9 |
| 20260506070531 | 15 | 278 | 0.0 | 0.0 | 0.00 | 0.00 | 0.00 | 49 | 1015.7 |
| 20260506062509 | 16 | 275 | 0.0 | 0.0 | 0.00 | 0.43 | 0.43 | 46 | 1015.6 |
| 20260506062005 | 16 | 270 | 0.0 | 0.0 | 0.00 | 0.43 | 0.43 | 45 | 1015.8 |
| 20260506061501 | 16 | 282 | 0.0 | 0.0 | 0.00 | 0.43 | 0.43 | 46 | 1015.7 |
| 20260506060959 | 16 | 275 | 0.0 | 0.0 | 0.00 | 0.43 | 0.43 | 47 | 1015.8 |
| 20260506060457 | 16 | 276 | 0.0 | 0.0 | 0.00 | 0.43 | 0.43 | 47 | 1015.8 |
| 20260506050926 | 16 | 324 | 0.0 | 0.0 | 0.00 | 0.43 | 0.43 | 45 | 1015.4 |
| 20260506050424 | 16 | 294 | 0.0 | 0.0 | 0.00 | 0.43 | 0.43 | 48 | 1015.5 |
| 20260506044914 | 17 | 278 | 0.0 | 0.0 | 0.00 | 0.43 | 0.43 | 44 | 1015.3 |
| 20260506044412 | 17 | 249 | 0.0 | 0.0 | 0.00 | 0.43 | 0.43 | 43 | 1014.9 |
| 20260506043909 | 17 | 248 | 0.0 | 0.0 | 0.00 | 0.43 | 0.43 | 42 | 1015.1 |
| 20260506043406 | 18 | 255 | 0.0 | 0.0 | 0.00 | 0.43 | 0.43 | 41 | 1014.9 |
| 20260506042904 | 18 | 244 | 0.0 | 0.0 | 0.00 | 0.43 | 0.43 | 41 | 1014.9 |
| 20260506042403 | 18 | 245 | 0.0 | 0.0 | 0.00 | 0.43 | 0.43 | 42 | 1015.0 |
| 20260506041901 | 18 | 201 | 0.0 | 3.2 | 0.00 | 0.43 | 0.43 | 41 | 1014.8 |
| 20260506041358 | 18 | 259 | 0.0 | 0.0 | 0.00 | 0.43 | 0.43 | 41 | 1014.5 |
| 20260506040855 | 18 | 286 | 0.0 | 0.0 | 0.00 | 0.43 | 0.43 | 40 | 1014.9 |
| 20260506040353 | 18 | 239 | 0.0 | 0.0 | 0.00 | 0.43 | 0.43 | 40 | 1014.5 |
| 20260506035848 | 18 | 257 | 0.0 | 11.3 | 0.00 | 0.43 | 0.43 | 39 | 1014.2 |
| 20260506035346 | 18 | 234 | 0.0 | 8.0 | 0.00 | 0.43 | 0.43 | 44 | 1014.4 |
| 20260506034843 | 18 | 257 | 0.0 | 1.6 | 0.00 | 0.43 | 0.43 | 45 | 1014.3 |
| 20260506034340 | 18 | 216 | 0.0 | 0.0 | 0.00 | 0.43 | 0.43 | 46 | 1014.0 |
| 20260506033837 | 18 | 265 | 0.0 | 0.0 | 0.00 | 0.43 | 0.43 | 45 | 1014.1 |
| 20260506033334 | 19 | 255 | 0.0 | 0.0 | 0.00 | 0.43 | 0.43 | 44 | 1014.0 |
| 20260506032831 | 19 | 285 | 0.0 | 0.0 | 0.00 | 0.43 | 0.43 | 43 | 1013.9 |
| 20260506032328 | 19 | 240 | 0.0 | 0.0 | 0.00 | 0.43 | 0.43 | 42 | 1013.9 |
| 20260506031825 | 19 | 214 | 0.0 | 1.6 | 0.00 | 0.43 | 0.43 | 41 | 1013.7 |
| 20260506031322 | 19 | 250 | 0.0 | 0.0 | 0.00 | 0.43 | 0.43 | 40 | 1013.7 |
| 20260506030820 | 19 | 225 | 0.0 | 0.0 | 0.00 | 0.43 | 0.43 | 39 | 1013.6 |
| 20260506030317 | 19 | 267 | 0.0 | 0.0 | 0.00 | 0.43 | 0.43 | 39 | 1013.5 |
| 20260506025814 | 19 | 273 | 0.0 | 0.0 | 0.00 | 0.43 | 0.43 | 40 | 1013.4 |
| 20260506025311 | 19 | 239 | 0.0 | 0.0 | 0.00 | 0.43 | 0.43 | 39 | 1013.4 |
| 20260506024808 | 20 | 250 | 0.0 | 0.0 | 0.00 | 0.43 | 0.43 | 39 | 1013.2 |
| 20260506024304 | 20 | 219 | 0.0 | 0.0 | 0.00 | 0.43 | 0.43 | 38 | 1013.4 |
| 20260506023800 | 20 | 250 | 0.0 | 1.6 | 0.00 | 0.43 | 0.43 | 38 | 1013.1 |
| 20260506023258 | 20 | 220 | 0.0 | 0.0 | 0.00 | 0.43 | 0.43 | 38 | 1013.1 |
| 20260506022754 | 20 | 237 | 0.0 | 3.2 | 0.00 | 0.43 | 0.43 | 38 | 1013.0 |
| 20260506022252 | 20 | 231 | 0.0 | 3.2 | 0.00 | 0.43 | 0.43 | 37 | 1012.7 |
| 20260506021750 | 20 | 215 | 0.0 | 9.7 | 0.00 | 0.43 | 0.43 | 37 | 1012.8 |
| 20260506021247 | 20 | 198 | 1.6 | 3.2 | 0.00 | 0.43 | 0.43 | 36 | 1012.8 |
| 20260506020743 | 20 | 254 | 1.6 | 8.0 | 0.00 | 0.43 | 0.43 | 35 | 1012.6 |
| 20260506020241 | 20 | 219 | 0.0 | 1.6 | 0.00 | 0.43 | 0.43 | 34 | 1012.5 |
| 20260506015738 | 20 | 286 | 4.8 | 16.1 | 0.00 | 0.43 | 0.43 | 34 | 1012.6 |
| 20260506015236 | 20 | 264 | 0.0 | 0.0 | 0.00 | 0.43 | 0.43 | 33 | 1012.6 |
| 20260506014732 | 21 | 263 | 0.0 | 0.0 | 0.00 | 0.43 | 0.43 | 32 | 1012.4 |
| 20260506014229 | 21 | 239 | 0.0 | 4.8 | 0.00 | 0.43 | 0.43 | 32 | 1012.3 |
| 20260506013726 | 21 | 250 | 0.0 | 1.6 | 0.00 | 0.43 | 0.43 | 31 | 1012.3 |
| 20260506013223 | 21 | 257 | 0.0 | 12.9 | 0.00 | 0.43 | 0.43 | 31 | 1012.3 |
| 20260506012719 | 21 | 285 | 0.0 | 0.0 | 0.00 | 0.43 | 0.43 | 31 | 1012.2 |
| 20260506012217 | 22 | 217 | 0.0 | 8.0 | 0.00 | 0.43 | 0.43 | 32 | 1012.3 |
| 20260506011714 | 22 | 220 | 4.8 | 12.9 | 0.00 | 0.43 | 0.43 | 32 | 1012.2 |
| 20260506011210 | 22 | 283 | 8.0 | 17.7 | 0.00 | 0.43 | 0.43 | 32 | 1012.1 |
| 20260506010709 | 22 | 244 | 12.9 | 24.1 | 0.00 | 0.43 | 0.43 | 32 | 1012.1 |
| 20260506010206 | 22 | 223 | 9.7 | 12.9 | 0.00 | 0.43 | 0.43 | 32 | 1012.1 |
| 20260506005703 | 22 | 241 | 1.6 | 17.7 | 0.00 | 0.43 | 0.43 | 32 | 1012.1 |
| 20260506005159 | 22 | 192 | 9.7 | 22.5 | 0.00 | 0.43 | 0.43 | 32 | 1011.6 |
| 20260506004655 | 23 | 211 | 0.0 | 11.3 | 0.00 | 0.43 | 0.43 | 31 | 1011.7 |
| 20260506004153 | 23 | 209 | 1.6 | 14.5 | 0.00 | 0.43 | 0.43 | 30 | 1011.9 |
| 20260506003649 | 22 | 189 | 0.0 | 9.7 | 0.00 | 0.43 | 0.43 | 31 | 1012.0 |
| 20260506003145 | 23 | 237 | 6.4 | 20.9 | 0.00 | 0.43 | 0.43 | 30 | 1011.7 |
| 20260506002641 | 23 | 38 | 0.0 | 11.3 | 0.00 | 0.43 | 0.43 | 29 | 1011.6 |
| 20260506002138 | 23 | 195 | 0.0 | 0.0 | 0.00 | 0.43 | 0.43 | 29 | 1011.7 |
| 20260506001633 | 23 | 194 | 3.2 | 12.9 | 0.00 | 0.43 | 0.43 | 29 | 1011.7 |
| 20260506001131 | 25 | 202 | 9.7 | 17.7 | 0.00 | 0.43 | 0.43 | 28 | 1011.6 |
| 20260506000628 | 24 | 220 | 0.0 | 16.1 | 0.00 | 0.43 | 0.43 | 28 | 1011.4 |
| 20260506000125 | 24 | 289 | 4.8 | 16.1 | 0.00 | 0.43 | 0.43 | 28 | 1011.5 |
| 20260505235623 | 24 | 238 | 0.0 | 14.5 | 0.00 | 0.43 | 0.43 | 28 | 1011.4 |
| 20260505235120 | 23 | 255 | 1.6 | 12.9 | 0.00 | 0.43 | 0.43 | 30 | 1011.3 |
| 20260505234617 | 25 | 311 | 0.0 | 3.2 | 0.00 | 0.43 | 0.43 | 28 | 1011.3 |
| 20260505234114 | 24 | 251 | 0.0 | 14.5 | 0.00 | 0.43 | 0.43 | 29 | 1011.5 |
| 20260505233612 | 25 | 175 | 8.0 | 17.7 | 0.00 | 0.43 | 0.43 | 28 | 1011.4 |
| 20260505233109 | 24 | 203 | 0.0 | 1.6 | 0.00 | 0.43 | 0.43 | 29 | 1011.2 |
| 20260505232607 | 25 | 214 | 0.0 | 14.5 | 0.00 | 0.43 | 0.43 | 29 | 1011.3 |
| 20260505232104 | 23 | 244 | 0.0 | 22.5 | 0.00 | 0.43 | 0.43 | 31 | 1011.2 |
| 20260505231600 | 23 | 202 | 0.0 | 0.0 | 0.00 | 0.43 | 0.43 | 30 | 1011.1 |
| 20260505231059 | 22 | 117 | 0.0 | 0.0 | 0.00 | 0.43 | 0.43 | 32 | 1011.3 |
| 20260505230556 | 22 | 183 | 0.0 | 9.7 | 0.00 | 0.43 | 0.43 | 32 | 1011.4 |
| 20260505230052 | 23 | 216 | 0.0 | 0.0 | 0.00 | 0.43 | 0.43 | 32 | 1011.3 |
| 20260505225549 | 22 | 220 | 0.0 | 0.0 | 0.00 | 0.43 | 0.43 | 33 | 1011.5 |
| 20260505225045 | 23 | 187 | 0.0 | 11.3 | 0.00 | 0.43 | 0.43 | 32 | 1011.4 |
| 20260505224542 | 24 | 229 | 6.4 | 20.9 | 0.00 | 0.43 | 0.43 | 30 | 1011.4 |
| 20260505224040 | 24 | 182 | 0.0 | 3.2 | 0.00 | 0.43 | 0.43 | 31 | 1011.5 |
| 20260505223537 | 23 | 212 | 0.0 | 3.2 | 0.00 | 0.43 | 0.43 | 32 | 1011.6 |
| 20260505223033 | 23 | 213 | 0.0 | 0.0 | 0.00 | 0.43 | 0.43 | 32 | 1011.7 |
| 20260505222529 | 23 | 202 | 0.0 | 17.7 | 0.00 | 0.43 | 0.43 | 31 | 1011.6 |
| 20260505222025 | 23 | 164 | 0.0 | 0.0 | 0.00 | 0.43 | 0.43 | 31 | 1011.9 |
| 20260505221523 | 23 | 176 | 0.0 | 11.3 | 0.00 | 0.43 | 0.43 | 32 | 1011.7 |
| 20260505221019 | 24 | 217 | 1.6 | 8.0 | 0.00 | 0.43 | 0.43 | 31 | 1011.6 |
| 20260505220517 | 22 | 215 | 0.0 | 9.7 | 0.00 | 0.43 | 0.43 | 34 | 1011.9 |
| 20260505220015 | 23 | 278 | 0.0 | 4.8 | 0.00 | 0.43 | 0.43 | 34 | 1011.9 |
| 20260505215512 | 23 | 246 | 0.0 | 11.3 | 0.00 | 0.43 | 0.43 | 34 | 1012.0 |
| 20260505215010 | 23 | 312 | 0.0 | 4.8 | 0.00 | 0.43 | 0.43 | 33 | 1012.0 |
| 20260505214508 | 24 | 280 | 0.0 | 0.0 | 0.00 | 0.43 | 0.43 | 32 | 1012.2 |
| 20260505214004 | 24 | 79 | 0.0 | 0.0 | 0.00 | 0.43 | 0.43 | 33 | 1012.1 |
| 20260505213502 | 25 | 189 | 0.0 | 4.8 | 0.00 | 0.43 | 0.43 | 33 | 1012.2 |
| 20260505212958 | 24 | 175 | 0.0 | 3.2 | 0.00 | 0.43 | 0.43 | 35 | 1012.2 |
| 20260505212455 | 24 | 184 | 0.0 | 8.0 | 0.00 | 0.43 | 0.43 | 36 | 1012.4 |
| 20260505211951 | 24 | 209 | 6.4 | 17.7 | 0.00 | 0.43 | 0.43 | 37 | 1012.3 |
| 20260505211449 | 24 | 273 | 4.8 | 24.1 | 0.00 | 0.43 | 0.43 | 38 | 1012.3 |
| 20260505210945 | 23 | 251 | 9.7 | 14.5 | 0.00 | 0.43 | 0.43 | 40 | 1012.4 |
| 20260505210442 | 23 | 256 | 8.0 | 17.7 | 0.00 | 0.43 | 0.43 | 39 | 1012.3 |
| 20260505205939 | 25 | 206 | 9.7 | 16.1 | 0.00 | 0.43 | 0.43 | 33 | 1012.4 |
| 20260505205438 | 24 | 251 | 0.0 | 8.0 | 0.00 | 0.43 | 0.43 | 34 | 1012.4 |
| 20260505204934 | 22 | 197 | 1.6 | 24.1 | 0.00 | 0.43 | 0.43 | 34 | 1012.5 |
| 20260505204432 | 24 | 172 | 1.6 | 14.5 | 0.00 | 0.43 | 0.43 | 35 | 1012.5 |
| 20260505203929 | 25 | 261 | 0.0 | 16.1 | 0.00 | 0.43 | 0.43 | 34 | 1012.6 |
| 20260505203425 | 25 | 114 | 0.0 | 14.5 | 0.00 | 0.43 | 0.43 | 35 | 1012.7 |
| 20260505202922 | 25 | 136 | 4.8 | 16.1 | 0.00 | 0.43 | 0.43 | 34 | 1012.7 |
| 20260505202418 | 24 | 248 | 0.0 | 8.0 | 0.00 | 0.43 | 0.43 | 35 | 1012.7 |
| 20260505201915 | 23 | 26 | 0.0 | 17.7 | 0.00 | 0.43 | 0.43 | 34 | 1012.5 |
| 20260505201412 | 23 | 180 | 12.9 | 17.7 | 0.00 | 0.43 | 0.43 | 35 | 1012.6 |
| 20260505200910 | 23 | 158 | 12.9 | 17.7 | 0.00 | 0.43 | 0.43 | 36 | 1012.7 |
| 20260505200407 | 23 | 222 | 1.6 | 24.1 | 0.00 | 0.43 | 0.43 | 36 | 1012.8 |
| 20260505195902 | 23 | 225 | 6.4 | 17.7 | 0.00 | 0.43 | 0.43 | 43 | 1013.0 |
| 20260505195400 | 23 | 291 | 0.0 | 3.2 | 0.00 | 0.43 | 0.43 | 47 | 1012.9 |
| 20260505194857 | 22 | 339 | 8.0 | 12.9 | 0.00 | 0.43 | 0.43 | 49 | 1013.2 |
| 20260505194354 | 22 | 184 | 8.0 | 16.1 | 0.00 | 0.43 | 0.43 | 49 | 1012.9 |
| 20260505193849 | 23 | 165 | 9.7 | 20.9 | 0.00 | 0.43 | 0.43 | 34 | 1012.8 |
| 20260505193347 | 23 | 209 | 11.3 | 16.1 | 0.00 | 0.43 | 0.43 | 35 | 1012.9 |
| 20260505192844 | 21 | 264 | 4.8 | 4.8 | 0.00 | 0.43 | 0.43 | 52 | 1013.1 |
| 20260505192343 | 22 | 302 | 0.0 | 3.2 | 0.00 | 0.43 | 0.43 | 52 | 1013.0 |
| 20260505191840 | 21 | 234 | 1.6 | 3.2 | 0.00 | 0.43 | 0.43 | 54 | 1013.1 |
| 20260505191338 | 21 | 63 | 4.8 | 4.8 | 0.00 | 0.43 | 0.43 | 52 | 1013.0 |
| 20260505190835 | 21 | 19 | 3.2 | 4.8 | 0.00 | 0.43 | 0.43 | 51 | 1013.1 |
| 20260505190330 | 20 | 122 | 4.8 | 9.7 | 0.00 | 0.43 | 0.43 | 54 | 1013.4 |
| 20260505185826 | 20 | 142 | 4.8 | 9.7 | 0.00 | 0.43 | 0.43 | 54 | 1013.5 |
| 20260505185323 | 20 | 93 | 0.0 | 3.2 | 0.00 | 0.43 | 0.43 | 54 | 1013.4 |
| 20260505184819 | 21 | 177 | 3.2 | 3.2 | 0.00 | 0.43 | 0.43 | 53 | 1013.7 |
| 20260505184316 | 21 | 37 | 1.6 | 3.2 | 0.00 | 0.43 | 0.43 | 50 | 1013.4 |
| 20260505183813 | 22 | 68 | 1.6 | 3.2 | 0.00 | 0.43 | 0.43 | 50 | 1013.8 |
| 20260505183310 | 22 | 289 | 1.6 | 9.7 | 0.00 | 0.43 | 0.43 | 51 | 1013.7 |
| 20260505182807 | 21 | 167 | 4.8 | 12.9 | 0.00 | 0.43 | 0.43 | 52 | 1013.9 |
| 20260505182306 | 22 | 203 | 1.6 | 4.8 | 0.00 | 0.43 | 0.43 | 50 | 1013.8 |
| 20260505181800 | 22 | 121 | 3.2 | 9.7 | 0.00 | 0.43 | 0.43 | 51 | 1013.9 |
| 20260505181257 | 22 | 167 | 6.4 | 8.0 | 0.00 | 0.43 | 0.43 | 49 | 1013.9 |
| 20260505180753 | 21 | 224 | 6.4 | 9.7 | 0.00 | 0.43 | 0.43 | 52 | 1013.9 |
| 20260505180250 | 22 | 276 | 3.2 | 4.8 | 0.00 | 0.43 | 0.43 | 53 | 1014.0 |
| 20260505175747 | 20 | 289 | 3.2 | 4.8 | 0.00 | 0.43 | 0.43 | 58 | 1014.1 |
| 20260505175243 | 19 | 30 | 4.8 | 4.8 | 0.00 | 0.43 | 0.43 | 60 | 1014.1 |
| 20260505174740 | 19 | 56 | 4.8 | 4.8 | 0.00 | 0.43 | 0.43 | 60 | 1014.2 |
| 20260505174237 | 20 | 55 | 3.2 | 3.2 | 0.00 | 0.43 | 0.43 | 60 | 1014.3 |
| 20260505173733 | 20 | 4 | 1.6 | 3.2 | 0.00 | 0.43 | 0.43 | 60 | 1014.3 |
| 20260505173230 | 19 | 262 | 0.0 | 0.0 | 0.00 | 0.43 | 0.43 | 61 | 1014.6 |
| 20260505172727 | 19 | 291 | 0.0 | 1.6 | 0.00 | 0.43 | 0.43 | 62 | 1014.4 |
| 20260505172224 | 19 | 279 | 0.0 | 3.2 | 0.00 | 0.43 | 0.43 | 62 | 1014.4 |
| 20260505171723 | 19 | 81 | 1.6 | 3.2 | 0.00 | 0.43 | 0.43 | 61 | 1014.2 |
| 20260505171221 | 18 | 218 | 1.6 | 3.2 | 0.00 | 0.43 | 0.43 | 63 | 1014.2 |
| 20260505170717 | 18 | 269 | 0.0 | 4.8 | 0.00 | 0.43 | 0.43 | 64 | 1014.4 |
| 20260505170214 | 19 | 263 | 1.6 | 3.2 | 0.00 | 0.43 | 0.43 | 65 | 1014.3 |
| 20260505165710 | 18 | 328 | 0.0 | 1.6 | 0.00 | 0.43 | 0.43 | 62 | 1014.3 |
| 20260505165206 | 18 | 282 | 0.0 | 1.6 | 0.00 | 0.43 | 0.43 | 65 | 1014.3 |
| 20260505164701 | 18 | 256 | 0.0 | 3.2 | 0.00 | 0.43 | 0.43 | 63 | 1014.3 |
| 20260505164159 | 18 | 301 | 1.6 | 3.2 | 0.00 | 0.43 | 0.43 | 65 | 1014.3 |
| 20260505163657 | 18 | 229 | 3.2 | 3.2 | 0.00 | 0.43 | 0.43 | 66 | 1014.4 |
| 20260505163155 | 18 | 219 | 1.6 | 1.6 | 0.00 | 0.43 | 0.43 | 66 | 1014.3 |
| 20260505162652 | 18 | 261 | 0.0 | 1.6 | 0.00 | 0.43 | 0.43 | 68 | 1014.3 |
| 20260505162149 | 17 | 211 | 0.0 | 3.2 | 0.00 | 0.43 | 0.43 | 69 | 1014.4 |
| 20260505161646 | 17 | 264 | 0.0 | 3.2 | 0.00 | 0.43 | 0.43 | 71 | 1014.2 |
| 20260505161143 | 17 | 242 | 1.6 | 4.8 | 0.00 | 0.43 | 0.43 | 71 | 1014.3 |
| 20260505160642 | 17 | 217 | 1.6 | 3.2 | 0.00 | 0.43 | 0.43 | 71 | 1014.3 |
| 20260505160139 | 17 | 252 | 1.6 | 3.2 | 0.00 | 0.43 | 0.43 | 73 | 1014.3 |
| 20260505153118 | 17 | 277 | 0.0 | 3.2 | 0.00 | 0.43 | 0.43 | 80 | 1014.0 |
| 20260505152615 | 16 | 251 | 1.6 | 3.2 | 0.00 | 0.43 | 0.43 | 84 | 1014.1 |
| 20260505152110 | 16 | 221 | 1.6 | 3.2 | 0.00 | 0.43 | 0.43 | 89 | 1014.2 |
| 20260505151606 | 16 | 252 | 0.0 | 1.6 | 0.00 | 0.43 | 0.43 | 92 | 1014.0 |
| 20260505151103 | 15 | 257 | 1.6 | 3.2 | 0.00 | 0.43 | 0.43 | 94 | 1014.1 |
| 20260505150559 | 15 | 252 | 0.0 | 1.6 | 0.00 | 0.43 | 0.43 | 95 | 1014.1 |
| 20260505140525 | 15 | 292 | 0.0 | 1.6 | 0.00 | 0.43 | 0.43 | 96 | 1013.8 |
| 20260505124938 | 14 | 264 | 0.0 | 1.6 | 0.00 | 0.43 | 0.43 | 94 | 1013.1 |
| 20260505124435 | 13 | 207 | 1.6 | 3.2 | 0.00 | 0.43 | 0.43 | 94 | 1013.0 |
| 20260505123931 | 13 | 263 | 0.0 | 3.2 | 0.00 | 0.43 | 0.43 | 93 | 1013.0 |
| 20260505123428 | 13 | 243 | 1.6 | 3.2 | 0.00 | 0.43 | 0.43 | 93 | 1013.0 |
| 20260505122924 | 13 | 155 | 1.6 | 8.0 | 0.18 | 0.43 | 0.43 | 94 | 1012.8 |
| 20260505122421 | 13 | 238 | 1.6 | 1.6 | 0.00 | 0.41 | 0.41 | 95 | 1012.8 |
| 20260505121918 | 13 | 263 | 0.0 | 1.6 | 0.00 | 0.41 | 0.41 | 94 | 1012.9 |
| 20260505121415 | 13 | 265 | 0.0 | 1.6 | 0.00 | 0.41 | 0.41 | 94 | 1012.9 |
| 20260505120910 | 13 | 265 | 0.0 | 1.6 | 0.00 | 0.41 | 0.41 | 93 | 1012.9 |
| 20260505120407 | 13 | 252 | 0.0 | 1.6 | 0.00 | 0.41 | 0.41 | 92 | 1012.4 |
| 20260505115906 | 13 | 271 | 1.6 | 8.0 | 0.00 | 0.41 | 0.41 | 92 | 1012.9 |
| 20260505115403 | 13 | 153 | 1.6 | 8.0 | 0.00 | 0.41 | 0.41 | 93 | 1012.6 |
| 20260505114901 | 13 | 32 | 6.4 | 9.7 | 0.00 | 0.41 | 0.41 | 93 | 1012.7 |
| 20260505114357 | 13 | 93 | 4.8 | 8.0 | 0.00 | 0.41 | 0.41 | 94 | 1012.4 |
| 20260505113853 | 13 | 358 | 1.6 | 8.0 | 0.00 | 0.41 | 0.41 | 94 | 1012.6 |
| 20260505113350 | 13 | 100 | 4.8 | 8.0 | 0.00 | 0.41 | 0.41 | 95 | 1012.7 |
| 20260505112846 | 13 | 212 | 4.8 | 8.0 | 0.00 | 0.41 | 0.41 | 95 | 1012.8 |
| 20260505112344 | 13 | 31 | 3.2 | 8.0 | 0.00 | 0.41 | 0.41 | 95 | 1012.8 |
| 20260505111839 | 13 | 91 | 4.8 | 9.7 | 0.00 | 0.41 | 0.41 | 95 | 1012.7 |
| 20260505111335 | 13 | 141 | 4.8 | 8.0 | 0.13 | 0.41 | 0.41 | 95 | 1012.6 |
| 20260505110831 | 13 | 181 | 3.2 | 8.0 | 0.13 | 0.41 | 0.41 | 95 | 1012.6 |
| 20260505110329 | 13 | 183 | 1.6 | 8.0 | 0.00 | 0.38 | 0.38 | 94 | 1012.9 |
| 20260505101803 | 14 | 118 | 6.4 | 12.9 | 0.30 | 0.36 | 0.36 | 93 | 1013.5 |
| 20260505101259 | 14 | 152 | 11.3 | 14.5 | 0.18 | 0.33 | 0.33 | 93 | 1014.1 |
| 20260505100755 | 14 | 70 | 4.8 | 9.7 | 0.00 | 0.30 | 0.30 | 92 | 1014.1 |
| 20260505100252 | 14 | 46 | 9.7 | 16.1 | 0.00 | 0.30 | 0.30 | 93 | 1013.9 |
| 20260505095747 | 14 | 85 | 9.7 | 16.1 | 0.00 | 0.30 | 0.30 | 93 | 1013.4 |
| 20260505095246 | 14 | 34 | 6.4 | 16.1 | 0.00 | 0.30 | 0.30 | 94 | 1013.8 |
| 20260505094741 | 14 | 68 | 9.7 | 14.5 | 0.00 | 0.30 | 0.30 | 94 | 1013.8 |
| 20260505094238 | 14 | 77 | 14.5 | 20.9 | 0.00 | 0.30 | 0.30 | 95 | 1013.6 |
| 20260505093733 | 14 | 114 | 14.5 | 24.1 | 0.00 | 0.30 | 0.30 | 94 | 1013.8 |
| 20260505093231 | 15 | 86 | 8.0 | 12.9 | 0.00 | 0.30 | 0.30 | 93 | 1013.9 |
| 20260505092728 | 14 | 99 | 16.1 | 29.0 | 0.00 | 0.30 | 0.30 | 93 | 1013.9 |
| 20260505092227 | 14 | 99 | 4.8 | 16.1 | 0.00 | 0.30 | 0.30 | 93 | 1014.0 |
| 20260505091723 | 14 | 106 | 8.0 | 12.9 | 0.00 | 0.30 | 0.30 | 93 | 1014.0 |
| 20260505091222 | 15 | 137 | 9.7 | 12.9 | 0.00 | 0.30 | 0.30 | 92 | 1014.0 |
| 20260505090719 | 15 | 132 | 9.7 | 16.1 | 0.00 | 0.30 | 0.30 | 91 | 1014.1 |
| 20260505090217 | 14 | 157 | 8.0 | 17.7 | 0.13 | 0.30 | 0.30 | 92 | 1014.0 |
| 20260505085714 | 14 | 103 | 8.0 | 12.9 | 0.13 | 0.30 | 0.30 | 92 | 1014.1 |
| 20260505085212 | 14 | 34 | 3.2 | 11.3 | 0.00 | 0.28 | 0.28 | 92 | 1014.2 |
| 20260505084709 | 14 | 109 | 4.8 | 14.5 | 0.00 | 0.28 | 0.28 | 93 | 1014.4 |
| 20260505084209 | 14 | 35 | 11.3 | 22.5 | 0.00 | 0.28 | 0.28 | 93 | 1014.5 |
| 20260505083705 | 14 | 91 | 8.0 | 14.5 | 0.18 | 0.28 | 0.28 | 93 | 1014.6 |
| 20260505083201 | 14 | 110 | 8.0 | 17.7 | 0.18 | 0.28 | 0.28 | 94 | 1015.0 |
| 20260505082657 | 14 | 65 | 4.8 | 12.9 | 0.18 | 0.25 | 0.25 | 94 | 1015.3 |
| 20260505082155 | 14 | 106 | 8.0 | 14.5 | 0.13 | 0.23 | 0.23 | 94 | 1015.6 |
| 20260505081650 | 14 | 168 | 8.0 | 11.3 | 0.13 | 0.23 | 0.23 | 94 | 1015.6 |